Simultaneous Nadir Overpasses (SNOs) Predictions

Prediction of SNOs between AQUA and NPP Satellite Orbit:

Table of predicted SNOs for the next 14.0 days since TLE Epoch: 8/5/2012
Index Date (AQUA) Time (AQUA) Lat,Lon (AQUA) SZA (AQUA ) Date (NPP) Time (NPP) Lat,Lon (NPP) SZA (NPP ) Distance(km) Time Diff (sec)
1 08/06/2012 14:54:20 -76.55, 17.06 99.25 08/06/2012 14:53:21 -76.55, 17.08 99.21 0.70 59
2 08/06/2012 15:43:31 77.23,-172.82 79.93 08/06/2012 15:43:50 77.23,-172.89 79.93 2.00 19
3 08/09/2012 07:10:35 -76.98, 134.48 99.05 08/09/2012 07:10:05 -76.99, 134.57 99.04 2.37 30
4 08/09/2012 07:59:47 77.60, -55.43 80.19 08/09/2012 08:00:35 77.60, -55.41 80.15 0.34 48
5 08/11/2012 22:39:55 69.55, 66.44 89.90 08/11/2012 22:38:42 69.68, 65.44 90.10 41.71 73
6 08/11/2012
